Zurück zum Katalog

ATLAS 5 CENTAUR DEB

LostHEO
NORAD 46651·DEBRIS·🇺🇸 United States

Gestartet Sep 17, 2014 von Cape Canaveral Space Force Station

Loading…

Nächste Überflüge (nächste 24 Stunden)

TLE

VeraltetSource: Space-Track

Epoche: Mar 26, 2024, 08:10 UTC

1 46651U 14055DB  24086.34036259 -.00000082  00000-0  00000-0 0  9990
2 46651  20.2392 235.3552 4518243 356.4851   0.9955  1.78562764 18807

Verfolge ATLAS 5 CENTAUR DEB in Echtzeit mit AllMySat

Download on the App Store